Location: Stull Observatory
(42.2506°N, 77.7903°W)
Time: 07:23:31
(UTC-04:00)

Daily predictions for brighter satellites

Satellite Brightness Start Highest point End
(mag) Time Altitude Azimuth Time Altitude Azimuth Time Altitude Azimuth
Cosmos 2266 Rocket 4.1 21:19:24 10° S 21:25:34 59° E 21:31:39 10° NNE
Cosmos 405 3.2 21:23:36 10° N 21:27:12 58° ENE 21:30:45 10° SSE
Cosmos 1674 2.8 21:23:48 10° S 21:27:33 56° E 21:31:22 10° NNE
Cosmos 1553 Rocket 4.4 21:22:23 10° NNW 21:28:46 72° W 21:35:02 10° S
ALOS 3.9 21:25:21 10° SSW 21:29:36 35° W 21:33:53 10° NNW
Cosmos 2315 Rocket 4.5 21:24:38 10° N 21:30:32 44° ENE 21:36:24 10° SSE
H-2A R/B 4.1 21:29:15 10° E 21:32:07 15° ENE 21:35:00 10° NNE
Cosmos 1680 Rocket 3.6 21:28:17 10° NNW 21:33:31 64° ENE 21:38:44 10° SSE
H-2A R/B 4.5 21:34:07 10° S 21:37:17 16° SE 21:44:04 10° E
Cosmos 923 Rocket 4.0 21:32:52 10° NNW 21:38:06 89° WSW 21:43:18 10° SSE
Cosmos 1300 3.9 21:36:25 10° NNE 21:39:43 27° ENE 21:42:49 11° SE
Cosmos 1833 4.3 21:35:07 10° SSW 21:40:50 90° ESE 21:46:33 10° NNE
USA 229 DEB 4.0 21:34:20 10° SW 21:41:16 76° NW 21:48:19 10° NNE
USA 229 4.0 21:34:26 10° SW 21:41:22 76° NW 21:48:25 10° NNE
YAOGAN 6 3.6 21:38:16 10° SE 21:41:31 31° ENE 21:44:45 10° N
Tiangong 1 2.2 21:39:02 10° SSW 21:41:37 24° SSE 21:44:11 10° E
SPOT 1/Viking Rocket 4.3 21:39:15 10° SE 21:43:58 38° ENE 21:48:42 10° N
Cosmos 2333 Rocket 3.9 21:39:50 10° N 21:44:09 21° NE 21:48:28 10° E
AVUM R/B 4.3 21:42:46 10° SW 21:44:58 35° WNW 21:47:23 10° N
Cosmos 1898 Rocket 4.4 21:42:51 10° SSE 21:47:13 28° E 21:51:37 10° NE
Cosmos 1939 Rocket 3.2 21:46:50 10° S 21:50:44 62° W 21:54:36 10° NNW
H-2A R/B 2.6 21:46:38 10° S 21:51:07 62° WSW 21:55:37 10° NNW
Cosmos 1707 Rocket 4.2 21:48:05 10° N 21:52:13 40° ENE 21:55:47 13° SE
Cosmos 1437 Rocket 3.8 21:48:55 10° NNW 21:52:34 44° W 21:56:14 10° SSW
COSMOS 2428 3.0 21:50:49 10° NNW 21:56:26 59° ENE 22:01:17 14° SE
Cosmos 1666 Rocket 4.3 21:52:49 11° SSE 21:56:41 36° E 22:00:45 10° NNE
MetOp-A 4.2 21:52:02 10° SSE 21:57:21 73° ENE 22:02:43 10° N
SPOT 5 2.8 21:53:38 10° SSE 21:58:12 89° SW 22:03:04 10° NNW
Cosmos 2297 Rocket 4.0 21:57:44 11° ESE 21:59:12 12° E 22:01:02 10° ENE
NOSS 3-1 (A) 3.7 21:55:23 10° S 22:00:52 43° ESE 22:06:52 10° NE
BREEZE-M DEB (TANK) 4.1 21:59:54 10° NW 22:01:29 18° NNE 22:03:13 10° ENE
Cosmos 1455 4.4 22:00:31 10° NE 22:02:04 12° ENE 22:03:37 10° E
PSLV R/B 3.2 22:00:36 12° S 22:03:23 78° WSW 22:06:28 10° NNW
ARGOS 3.6 21:59:31 14° SE 22:04:02 49° ENE 22:09:13 10° N
Cosmos 2219 Rocket 3.1 21:59:30 10° N 22:04:37 35° ENE 22:08:52 14° ESE
Cosmos 304 Rocket 4.2 21:59:57 10° NNW 22:04:42 61° WSW 22:09:25 10° S
Nadezhda 2 Rocket 4.4 22:03:59 10° S 22:10:07 87° E 22:16:16 10° N
Cosmos 2237 4.2 22:12:17 10° NNW 22:18:04 89° SW 22:22:30 17° SSE
Cosmos 1437 4.2 22:16:58 10° SSW 22:20:04 38° WNW 22:23:10 10° N
Cosmos 1328 4.5 22:17:08 10° SSW 22:21:01 55° W 22:24:55 10° N
Cosmos 1726 2.2 22:17:20 10° N 22:21:06 66° E 22:23:25 22° SSE
ATLAS 2AS CENTAUR R/B 3.7 22:18:20 14° SSE 22:23:27 30° ESE 22:30:02 10° NE
Envisat 4.2 22:20:37 10° SSW 22:25:21 39° W 22:30:07 10° NNW
CZ-4C R/B 3.8 22:24:04 24° ESE 22:25:38 38° ENE 22:28:53 10° N
USA 32 4.3 22:20:34 10° N 22:25:44 54° E 22:29:09 21° SSE
Cosmos 292 Rocket 4.0 22:23:15 10° NNW 22:27:58 56° ENE 22:30:47 23° SE
Cosmos 2219 3.6 22:23:53 10° SSW 22:29:37 69° WNW 22:35:22 10° NNE
Landsat 7 4.2 22:27:03 21° SE 22:29:55 50° ENE 22:34:32 10° N
ERBS 4.0 22:32:03 19° E 22:32:03 19° E 22:33:38 10° ENE
Delta 2 Rocket 3.9 22:28:32 10° WSW 22:31:33 26° S 22:31:53 26° S
Cosmos 2237 Rocket 2.9 22:30:49 10° NNW 22:36:14 42° ENE 22:39:42 21° ESE
Cosmos 2333 4.2 22:30:40 10° NNW 22:36:25 86° WSW 22:40:15 22° SSE
Cosmos 1271 Rocket 2.7 22:34:28 10° N 22:38:18 68° E 22:40:05 30° SSE
ATLAS 3B R/B 3.9 22:32:02 10° NNW 22:38:23 33° NE 22:44:01 11° E
Meteor 2-10 4.4 22:33:55 10° N 22:39:36 63° ENE 22:43:05 24° SSE
Cosmos 2082 4.3 22:38:00 22° SSE 22:41:07 38° ESE 22:46:23 10° NE
Cosmos 1703 3.2 22:41:15 27° S 22:43:13 65° E 22:47:06 10° NNE
SL-14 R/B 3.6 22:40:06 14° SSW 22:43:29 66° W 22:47:28 10° N
Meteor 1-4 Rocket 2.5 22:40:04 10° N 22:43:51 87° ENE 22:45:29 32° S
Cosmos 2242 Rocket 3.6 22:39:41 10° N 22:44:11 88° E 22:46:44 26° S
Cosmos 1346 4.0 22:45:04 32° E 22:45:04 32° E 22:47:48 10° NNE
Terra 2.2 22:43:25 26° SE 22:45:47 50° ENE 22:50:24 10° N
Cosmos 1937 Rocket 3.4 22:41:24 14° S 22:45:54 70° ESE 22:51:05 10° NNE
Cosmos 2360 Rocket 3.9 22:42:44 10° NW 22:47:21 26° WSW 22:51:58 10° SSW
NOSS 3-1 (C) 3.7 22:41:31 10° SW 22:47:24 73° NW 22:53:59 10° NNE
Cosmos 2298 Rocket 4.3 22:42:16 10° SSW 22:47:35 71° WNW 22:52:55 10° NNE
Iridium 2 3.7 22:47:14 32° SSE 22:48:50 67° E 22:52:41 10° N
Spot 4 4.5 22:47:25 26° SE 22:49:42 43° ENE 22:54:18 10° N
Lacrosse 4 Rocket 3.5 22:47:37 10° N 22:50:51 19° NE 22:53:24 13° E
Cosmos 1862 Rocket 4.0 22:46:48 10° N 22:51:00 46° ENE 22:52:33 31° SE
NOAA 11 4.4 22:47:19 20° S 22:51:08 70° WSW 22:56:35 10° NNW
Sich 1 3.5 22:48:46 13° SSW 22:52:35 62° W 22:56:57 10° N
CARTOSAT-1 3.7 22:51:07 32° SE 22:52:57 60° ENE 22:57:13 10° N
USA 245 4.1 22:53:36 20° SW 22:54:20 23° W 22:56:18 10° NW
FALCON 9 R/B 4.1 22:26:40 10° WSW 22:54:38 60° S 23:00:30 18° ESE
Cosmos 1633 Rocket 3.5 22:52:39 14° SSW 22:56:17 59° W 23:00:36 10° N
Cosmos 990 Rocket 4.0 22:53:45 24° S 22:56:48 62° ESE 23:01:53 10° NNE
DELTA 2 DEB (DPAF) 4.2 22:58:33 29° S 23:00:48 74° WSW 23:05:18 10° NNW
Cosmos 1626 2.3 23:01:03 44° SE 23:01:50 54° E 23:05:31 10° NNE
OAO 2 Rocket 4.0 22:57:47 10° SW 23:02:35 34° S 23:03:20 33° SSE
COSMOS 2455 3.7 23:01:06 10° NNW 23:06:46 40° NE 23:10:13 22° ESE
SL-08 RB Rocket 4.5 23:06:51 23° SSW 23:09:18 45° W 23:13:37 10° NNW
H-2A R/B 2.1 23:08:02 30° S 23:10:46 84° WSW 23:16:15 10° NNW
Cosmos 2227 Rocket 2.1 23:11:30 22° SSW 23:15:17 77° ESE 23:20:58 10° NNE
Tiangong 1 1.6 23:14:52 10° WSW 23:17:12 47° WSW 23:17:12 47° WSW
Cosmos 1933 4.1 23:14:35 10° N 23:18:23 36° ENE 23:18:58 34° E
Cosmos 1241 Rocket 4.4 23:22:17 10° SSW 23:28:29 87° WNW 23:34:48 10° NNE
Cosmos 2333 Rocket 2.4 23:23:15 10° NNW 23:28:58 68° WSW 23:31:18 36° S
Cosmos 192 4.2 23:24:24 10° NNW 23:29:20 89° ENE 23:30:50 46° SSE
SL-16 R/B 2.7 23:24:11 10° NNW 23:29:42 50° ENE 23:32:01 32° ESE
Cosmos 389 Rocket 4.2 23:26:59 10° NNE 23:29:47 22° ENE 23:29:47 22° ENE
IGS 5A 3.7 23:29:10 42° SSW 23:30:19 60° W 23:34:28 10° NNW
SeaSat 1 3.5 23:29:32 24° E 23:31:39 35° NE 23:36:07 10° N
Cosmos 1125 Rocket 3.6 23:33:30 43° SSE 23:34:55 58° ESE 23:40:09 10° NNE
Cosmos 1048 Rocket 4.5 23:30:17 10° N 23:35:32 52° ENE 23:37:19 37° ESE
CZ-4B R/B 4.0 23:36:58 11° ENE 23:37:10 11° ENE 23:38:21 10° NE
Cosmos 1455 2.9 23:34:25 10° NNW 23:38:04 46° W 23:38:49 40° SW
Nadezhda 1 Rocket 4.4 23:33:08 10° NNW 23:39:02 54° W 23:42:17 27° SSW
SAR-Lupe-2 4.3 23:40:40 39° WSW 23:41:04 41° W 23:44:29 10° NNW
Cosmos 2297 Rocket 2.1 23:39:29 31° SSW 23:42:20 88° ESE 23:48:01 10° NNE
Okean 1-7 3.6 23:41:00 10° N 23:45:04 41° ENE 23:45:28 40° E
NOSS 2-3 (D) 4.5 23:46:30 39° ESE 23:46:30 39° ESE 23:51:31 10° NE
Cosmos 2219 Rocket 3.2 23:43:31 10° NW 23:48:31 34° WSW 23:50:35 26° SW
Cosmos 1703 Rocket 3.4 23:47:39 10° N 23:52:02 84° E 23:52:36 67° SSE
Cosmos 1869 4.3 23:51:46 10° NNW 23:55:31 37° W 23:56:15 34° WSW
